Scappoose, OR

10:55 PM PDT on September 30, 2016 (GMT -0700)
Scappoose Industrial

Weather History for KSPB - January, 2013

Change the Weather History Date:

Monday, January 7, 2013

  Actual Average Record
Temperature  
Mean Temperature 45 °F -  
Max Temperature 52 °F - 57 °F (2002)
Min Temperature 39 °F - 23 °F (2004)
Degree Days  
Heating Degree Days 19    
Month to date heating degree days 204  
Since 1 July heating degree days 2044  
Cooling Degree Days 0    
Month to date cooling degree days 0  
Year to date cooling degree days 0  
Moisture  
Dew Point 44 °F    
Average Humidity 93    
Maximum Humidity 100    
Minimum Humidity 86    
Precipitation  
Precipitation 0.22 in - 1.54 in (2002)
Month to date precipitation 0.39  
Year to date precipitation 0.39  
Sea Level Pressure  
Sea Level Pressure 30.09 in    
Wind  
Wind Speed 3 mph (South)    
Max Wind Speed 12 mph    
Max Gust Speed 17 mph    
Visibility 8 miles    
Events Rain    
T = Trace of Precipitation, MM = Missing Value Source: NWS Daily Summary

Daily Weather History Graph

Daily Weather History Graph

Search for Another Location

Airport or City:

Trip Planner

Search our weather history database for the weather conditions in past years. The results will help you decide how hot, cold, wet, or windy it might be!

Date:

Astronomy

Jan. 07, 2013 Rise Set
Actual Time 7:51 AM PST 4:44 PM PST
Civil Twilight 7:17 AM PST 5:18 PM PST
Nautical Twilight 6:40 AM PST 5:55 PM PST
Astronomical Twilight 6:04 AM PST 6:31 PM PST
Moon 3:18 AM PST (1/7) 1:02 PM PST (1/7)
Length of Visible Light 10h 00m
Length of Day
8h 52m
Waning Crescent, 21% of the Moon is Illuminated
Jan 7
Waning Crescent
Jan 11
New
Jan 18
First Quarter
Jan 26
Full
Feb 3
Last Quarter

Hourly Weather History & Observations

Time (PST) Temp. Windchill Dew Point Humidity Pressure Visibility Wind Dir Wind Speed Gust Speed Precip Events Conditions
12:26 AM 39.2 °F - 37.4 °F 93% 30.06 in 3.0 mi Calm Calm - 0.03 in Rain Light Rain
12:53 AM 39.9 °F - 39.0 °F 97% 30.05 in 4.0 mi Calm Calm - 0.06 in Rain Light Rain
1:36 AM 39.2 °F - 39.2 °F 100% 30.04 in 5.0 mi Calm Calm - 0.02 in Rain Light Rain
1:53 AM 41.0 °F - 39.0 °F 93% 30.05 in 4.0 mi Calm Calm - 0.02 in Rain Light Rain
2:26 AM 42.8 °F 41.1 °F 41.0 °F 93% 30.03 in 8.0 mi Variable 3.5 mph - 0.00 in Rain Light Rain
2:53 AM 44.1 °F 40.1 °F 41.0 °F 89% 30.02 in 10.0 mi South 6.9 mph - 0.00 in Rain Light Rain
3:07 AM 44.6 °F 40.7 °F 42.8 °F 93% 30.02 in 10.0 mi South 6.9 mph - 0.00 in   Overcast
3:53 AM 45.0 °F 39.7 °F 42.1 °F 90% 30.01 in 7.0 mi South 10.4 mph 17.3 mph 0.01 in   Overcast
4:53 AM 44.1 °F 39.5 °F 42.1 °F 93% 30.00 in 6.0 mi South 8.1 mph - 0.02 in Rain Light Rain
5:53 AM 45.0 °F 41.8 °F 43.0 °F 93% 29.99 in 5.0 mi South 5.8 mph - 0.05 in Rain Light Rain
6:53 AM 46.0 °F 43.9 °F 43.0 °F 89% 29.99 in 10.0 mi SSE 4.6 mph - 0.03 in   Overcast
7:53 AM 46.0 °F 43.9 °F 43.0 °F 89% 29.99 in 10.0 mi SE 4.6 mph - 0.01 in Rain Light Rain
8:53 AM 46.0 °F 43.1 °F 44.1 °F 93% 30.02 in 10.0 mi SSE 5.8 mph - 0.01 in   Overcast
9:53 AM 46.9 °F - 46.0 °F 97% 30.05 in 4.0 mi South 3.5 mph - 0.00 in Rain Light Rain
10:48 AM 48.2 °F - 46.4 °F 93% 30.08 in 2.5 mi Calm Calm - 0.00 in Rain Light Rain
10:50 AM 48.2 °F - 46.4 °F 93% 30.08 in 3.0 mi Calm Calm - 0.00 in Rain Light Rain
10:53 AM 48.0 °F - 46.9 °F 96% 30.08 in 3.0 mi Calm Calm - 0.00 in Rain Light Rain
11:04 AM 48.2 °F - 46.4 °F 93% 30.09 in 4.0 mi Calm Calm - 0.00 in   Overcast
11:29 AM 48.2 °F - 46.4 °F 93% 30.08 in 6.0 mi South 3.5 mph - 0.00 in   Overcast
11:53 AM 48.9 °F - 46.9 °F 93% 30.07 in 8.0 mi South 5.8 mph - 0.01 in   Overcast
12:04 PM 48.2 °F - 46.4 °F 93% 30.08 in 7.0 mi South 5.8 mph - N/A   Overcast
12:30 PM 48.2 °F - 46.4 °F 93% 30.09 in 10.0 mi SW 4.6 mph - N/A   Overcast
12:48 PM 50.0 °F - 46.4 °F 87% 30.09 in 10.0 mi Calm Calm - N/A   Overcast
12:53 PM 48.9 °F - 46.9 °F 93% 30.08 in 10.0 mi Calm Calm - N/A   Overcast
1:10 PM 50.0 °F - 48.2 °F 94% 30.09 in 10.0 mi Calm Calm - N/A   Overcast
1:49 PM 51.8 °F - 48.2 °F 88% 30.09 in 10.0 mi South 5.8 mph - N/A   Overcast
1:53 PM 51.1 °F - 48.0 °F 89% 30.09 in 10.0 mi SSE 5.8 mph - N/A   Overcast
2:04 PM 51.8 °F - 48.2 °F 88% 30.10 in 10.0 mi SSE 5.8 mph - N/A   Overcast
2:26 PM 51.8 °F - 48.2 °F 88% 30.11 in 10.0 mi Calm Calm - N/A   Overcast
3:03 PM 51.8 °F - 48.2 °F 88% 30.12 in 10.0 mi Calm Calm - 0.00 in   Overcast
3:17 PM 51.8 °F - 48.2 °F 88% 30.13 in 10.0 mi Calm Calm - 0.00 in Rain Light Rain
3:53 PM 50.0 °F - 48.9 °F 96% 30.15 in 10.0 mi Calm Calm - 0.00 in   Overcast
4:53 PM 48.9 °F - 46.9 °F 93% 30.14 in 8.0 mi Calm Calm - N/A   Mostly Cloudy
5:53 PM 46.9 °F - 45.0 °F 93% 30.16 in 10.0 mi Calm Calm - N/A   Overcast
6:53 PM 46.9 °F - 43.0 °F 86% 30.19 in 10.0 mi Calm Calm - N/A   Overcast
7:53 PM 46.0 °F - 42.1 °F 86% 30.19 in 10.0 mi Calm Calm - N/A   Overcast
8:53 PM 45.0 °F - 43.0 °F 93% 30.21 in 10.0 mi Calm Calm - N/A   Overcast
9:53 PM 42.1 °F - 42.1 °F 100% 30.20 in 6.0 mi Calm Calm - N/A   Overcast
10:04 PM 44.6 °F - 42.8 °F 93% 30.21 in 8.0 mi Calm Calm - N/A   Overcast
10:36 PM 42.8 °F 41.1 °F 41.0 °F 93% 30.22 in 8.0 mi West 3.5 mph - N/A   Overcast
10:53 PM 42.1 °F - 41.0 °F 96% 30.22 in 10.0 mi Calm Calm - N/A   Overcast
11:53 PM 43.0 °F - 41.0 °F 93% 30.21 in 10.0 mi Calm Calm - N/A   Overcast